[[{"header":{"parameterUnit":"m.s-1","parameterCategory":1,"la1":30.2992,"la2":30.254,"lo1":-89.0895,"lo2":-89.0443,"dy":0.0025,"dx":0.0025,"nx":19,"ny":19,"refTime":"2026-03-21T03:00:00:Z","depth":0,"parameterNumber":2,"parameterNumberName":"U-component_of_WINDS"},"data":[0,0,0,2.3809,2.381,2.3871,2.3872,2.3947,2.3948,0,0,0,0,0,0,0,0,0,0,0,2.3786,2.3786,2.3808,2.381,2.3871,2.3872,2.3947,2.3948,0,0,0,0,0,0,0,0,0,0,0,2.3786,2.3786,2.3787,2.381,2.3871,2.3872,2.3947,2.3902,0,0,0,0,0,0,0,0,0,0,2.3843,2.3817,2.3786,2.3787,2.381,2.3871,2.3872,2.39,2.3905,2.3917,0,2.3925,0,2.3937,2.3952,2.3953,0,0,0,2.3814,2.3813,2.3834,2.3787,2.3811,2.3871,2.3845,2.3903,2.3908,2.3924,2.3926,2.3929,2.3939,2.3953,2.3953,2.4007,2.4007,0,0,2.381,2.3795,2.383,2.3837,2.3825,2.3843,2.3846,2.3906,2.3909,2.3926,2.3931,2.394,2.3953,2.3954,2.4007,2.4007,0,0,0,2.3798,2.3793,2.3812,2.3834,2.3845,2.3844,2.3849,2.3906,2.3913,2.3932,2.3941,2.3954,2.3955,2.4007,2.4007,2.3995,0,0,0,2.3796,2.3785,2.381,2.3801,2.3844,2.3876,2.3847,2.3909,2.3916,2.394,2.3954,2.3955,2.4007,2.4007,2.3995,2.3992,0,0,0,2.3784,2.3784,2.3791,2.38,2.3826,2.3875,2.3886,2.3911,2.3922,2.3953,2.3956,2.4007,2.4007,2.3995,2.3992,2.4002,0,0,0,2.3766,2.378,2.3791,2.381,2.3825,2.3866,2.3886,2.3918,2.3943,2.3954,2.4007,2.4007,2.3995,2.3992,2.4002,2.4007,2.4007,0,0,2.3775,2.3781,2.3793,2.3805,2.384,2.3858,2.3893,2.3931,2.3949,2.3987,2.3989,2.3995,2.3992,2.4002,2.4016,2.4016,0,0,0,2.3791,2.38,2.3813,2.3835,2.3864,2.3889,2.3923,2.3938,2.3971,2.3965,2.4002,2.4001,2.4007,2.401,2.401,2.4017,2.4008,2.4008,2.4008,2.3782,2.3804,2.3827,2.3856,2.3878,2.3913,2.3934,2.396,2.3976,2.3984,2.3995,2.4001,2.4004,2.4005,2.4011,2.4,2.4,2.4,2.4,2.3798,2.3814,2.3835,2.3864,2.3888,2.3914,2.3951,2.3961,2.399,2.3994,2.4001,2.4003,2.4004,2.4011,2.3999,2.3999,2.4,2.4,2.4,2.3794,2.3805,2.3822,2.3858,2.3884,2.3914,2.3941,2.3962,2.3982,2.3989,2.4004,2.4004,2.4007,2.3995,2.3995,2.3995,2.3995,2.3995,2.3995,2.3783,2.3802,2.3821,2.3854,2.3872,2.3899,2.3937,2.3956,2.3983,2.3996,2.3996,2.4012,2.4,2.3996,2.3995,2.3995,2.3995,2.3995,2.3995,2.379,2.3792,2.3821,2.3839,2.3881,2.3906,2.3933,2.397,2.399,2.4003,2.4018,2.4005,2.4012,2.4012,2.401,2.4012,2.4012,2.4012,2.4012,2.3786,2.3792,2.3828,2.3855,2.3885,2.3913,2.3948,2.3979,2.4011,2.4025,2.4028,2.4027,2.4026,2.4034,2.4033,2.4031,2.4039,2.4039,2.4039,2.3792,2.3802,2.3826,2.3857,2.3891,2.3921,2.3956,2.3989,2.4026,2.404,2.4037,2.4036,2.4033,2.4031,2.4044,2.4043,2.4039,0,0]},{"header":{"parameterUnit":"m.s-1","parameterCategory":1,"la1":30.2992,"la2":30.254,"lo1":-89.0895,"lo2":-89.0443,"dy":0.0025,"dx":0.0025,"nx":19,"ny":19,"refTime":"2026-03-21T03:00:00:Z","depth":0,"parameterNumber":3,"parameterNumberName":"V-component_of_WINDS"},"data":[0,0,0,2.5871,2.5872,2.5931,2.5932,2.5998,2.5998,0,0,0,0,0,0,0,0,0,0,0,2.585,2.585,2.587,2.5872,2.5931,2.5932,2.5998,2.5998,0,0,0,0,0,0,0,0,0,0,0,2.5849,2.585,2.585,2.5872,2.5931,2.5932,2.5997,2.5955,0,0,0,0,0,0,0,0,0,0,2.5899,2.5878,2.585,2.585,2.5872,2.5931,2.5932,2.5954,2.5958,2.5967,0,2.5977,0,2.5989,2.6002,2.6002,0,0,0,2.5874,2.5874,2.5893,2.585,2.5873,2.5931,2.5905,2.5956,2.5961,2.5973,2.5978,2.5981,2.599,2.6003,2.6003,2.6055,2.6055,0,0,2.587,2.5858,2.5889,2.5896,2.5889,2.5903,2.5907,2.5959,2.5963,2.5978,2.5982,2.5991,2.6003,2.6004,2.6055,2.6055,0,0,0,2.586,2.5856,2.5874,2.5893,2.5905,2.5905,2.5909,2.5961,2.5968,2.5983,2.5992,2.6003,2.6004,2.6055,2.6055,2.6051,0,0,0,2.5858,2.585,2.5872,2.5865,2.5904,2.5934,2.5909,2.5964,2.597,2.5991,2.6003,2.6005,2.6055,2.6055,2.6051,2.6051,0,0,0,2.5847,2.5848,2.5856,2.5865,2.589,2.5934,2.5944,2.5966,2.5975,2.6003,2.6005,2.6055,2.6055,2.6051,2.6051,2.6061,0,0,0,2.5831,2.5852,2.5856,2.5882,2.5889,2.5932,2.5943,2.5975,2.5998,2.6004,2.6055,2.6055,2.6051,2.6051,2.6061,2.6067,2.6068,0,0,2.585,2.5854,2.587,2.5875,2.5914,2.5923,2.596,2.5992,2.6005,2.6037,2.6038,2.6051,2.6051,2.6061,2.6083,2.6084,0,0,0,2.5872,2.5883,2.5896,2.5918,2.5944,2.5964,2.5992,2.6003,2.6031,2.602,2.6058,2.6058,2.6065,2.6068,2.6069,2.6074,2.6056,2.6056,2.6056,2.5881,2.5897,2.5924,2.5947,2.5968,2.5996,2.6013,2.6032,2.6042,2.6051,2.606,2.6072,2.6076,2.6077,2.6082,2.6065,2.6065,2.6065,2.6065,2.5909,2.5927,2.594,2.5971,2.5986,2.6011,2.6038,2.6043,2.6067,2.6067,2.6073,2.607,2.6078,2.6083,2.6065,2.6065,2.6065,2.6065,2.6065,2.5916,2.5928,2.5942,2.5975,2.5997,2.6019,2.6041,2.6055,2.6067,2.6073,2.6084,2.6084,2.6085,2.6077,2.6078,2.6078,2.6078,2.6078,2.6078,2.5918,2.5934,2.5953,2.5981,2.5996,2.6017,2.6044,2.6058,2.6077,2.6085,2.6085,2.6092,2.6076,2.6071,2.6078,2.6078,2.6078,2.6078,2.6078,2.5939,2.5937,2.5965,2.598,2.6013,2.6034,2.6051,2.6078,2.6092,2.6102,2.6108,2.6094,2.6098,2.6097,2.6093,2.6106,2.6106,2.6106,2.6106,2.5945,2.5948,2.598,2.6003,2.6027,2.6045,2.6073,2.6093,2.6113,2.6122,2.6122,2.6118,2.6117,2.6121,2.612,2.6116,2.6134,2.6134,2.6135,2.5958,2.5965,2.5988,2.6009,2.6036,2.6057,2.6084,2.6107,2.6129,2.6136,2.6129,2.6127,2.6121,2.6119,2.6125,2.6123,2.6116,0,0]}]]